Regional Weather Roundup
Issued by NWS Jackson, KY

Home | Current Version | Previous Version | Graphics & Text | Print | Product List | Glossary On
Versions: 1 2 3 4 5 6 7 8 9 10 11 12 13 14 15 16 17 18 19 20 21 22 23 24 25 26 27 28
000
ASUS43 KJKL 202010
RWRJKL

EAST KENTUCKY HOURLY WEATHER ROUNDUP
NATIONAL WEATHER SERVICE JACKSON KY
300 PM EST SAT JAN 20 2018

NOTE: "FAIR" INDICATES FEW OR NO CLOUDS BELOW 12,000 FEET WITH
NO SIGNIFICANT WEATHER AND/OR OBSTRUCTIONS TO VISIBILITY.

* THESE REPORTS ARE NOT UNDER NWS QUALITY CONTROL AND MAY NOT
  REPORT WEATHER SUCH AS PRECIPITATION AND FOG.

KYZ079-080-083-085-087-088-110-112-115-119-120-202100
...EASTERN KENTUCKY...

CITY           SKY/WX    TMP DP  RH WIND       PRES   REMARKS
JACKSON        CLOUDY    52  38  58 VRB5      30.12F
LONDON         PTSUNNY   56  36  47 SW14G21   30.13F
SOMERSET*        N/A     55  34  44 W15       30.16S
MONTICELLO*      N/A     57  34  41 SW20      30.16F
WILLIAMSBURG*    N/A     57  32  38 SW6       30.15F
MIDDLESBORO*   PTSUNNY   53  32  45 S9        30.17F
HARLAN APT*    CLOUDY    48  30  49 CALM      30.16F
PIKE CO APT*   CLOUDY    54  38  56 S5        30.12S
BIG SANDY APT* CLOUDY    55  38  53 W7        30.12S
MOREHEAD APT*  CLOUDY    50  32  50 SW13      30.13S
ASHLAND*         N/A     52  35  52 SW16      30.11S
$$

KYZ035-036-041-042-044-050-067-078-099-202100
...CENTRAL KENTUCKY...

CITY           SKY/WX    TMP DP  RH WIND       PRES   REMARKS
MT STERLING*   CLOUDY    50  36  57 SW9       30.13S
FLEMING/MASON* CLOUDY    46  32  58 SW6       30.12S
DANVILLE*      CLOUDY    50  37  62 SW9       30.13S
LEXINGTON      CLOUDY    48  34  58 SW12      30.11F
FRANKFORT      CLOUDY    49  32  52 SW10G20   30.10R
LOUISVILLE     CLOUDY    52  37  56 SW14      30.10S
LEBANON*       MOCLDY    50  39  66 S13       30.13S
GLASGOW*       CLOUDY    52  39  61 SW6       30.15S
BOWLING GREEN  CLOUDY    52  35  52 SW3       30.14F
$$

KYZ091>093-OHZ055-061-077-WVZ005-015-034-035-042-202100
...SOUTHERN OHIO/WEST VIRGINIA...

CITY           SKY/WX    TMP DP  RH WIND       PRES   REMARKS
COVINGTON      PTSUNNY   47  32  56 S12       30.06F
COLUMBUS       PTSUNNY   43  28  55 SW13      30.06R
DAYTON         PTSUNNY   44  33  65 SW15      30.04F
WILMINGTON       N/A     44  31  60 SW12      30.05S
HUNTINGTON       N/A     52  34  50 W12G18    30.10S
CHARLESTON       N/A     55  36  48 SW16G23   30.09R
BECKLEY        PTSUNNY   48  35  60 SW12      30.10S
BLUEFIELD      CLOUDY    46  33  60 W16       30.12S
LOGAN CO APT*  CLOUDY    54  37  54 VRB5G12   30.10S
$$

VAZ002-007-008-TNZ017-027-036-066-071-202100
...SOUTHWEST VIRGINIA/EAST TENNESSEE...

CITY           SKY/WX    TMP DP  RH WIND       PRES   REMARKS
WISE*          CLOUDY    45  34  65 SW13G18   30.16R
JONESVILLE*      N/A     48  30  49 SW3       30.20F
ABINGDON*      CLOUDY    49  36  59 W10       30.18S
BRISTOL        CLOUDY    50  34  54 CALM      30.19F
MORRISTOWN*    CLEAR     55  34  44 VRB7      30.18F
SEVIERVILLE*   MOCLDY    55  34  44 CALM      30.18F
KNOXVILLE      PTSUNNY   58  37  45 SW8       30.18F
LAFOLLETTE*    CLEAR     54  30  40 CALM      30.20F
OAK RIDGE        N/A     57  31  37 VRB6      30.19F
CROSSVILLE     PTSUNNY   56  35  45 W12G18    30.18S
NASHVILLE      PTSUNNY   62  30  29 S12G17    30.15F
$$

...KEY TO REMARKS...
VSB - VISIBILITY IN MILES
WCI - WIND CHILL INDEX
HX  - HEAT INDEX

$$




USA.gov is the U.S. government's official web portal to all federal, state and local government web resources and services.